Time,TemperatureF,DewpointF,PressureIn,WindDirection,WindDirectionDegrees,WindSpeedMPH,WindSpeedGustMPH,Humidity,HourlyPrecipIn,Conditions,Clouds,dailyrainin,SoftwareType,DateUTC
2013-04-06 00:02:00,52.0,50.0,29.83,SSE,155,5.0,-999.0,94,-99.99,,,-99.99,,2013-04-06 07:02:00,
2013-04-06 00:11:00,52.0,50.0,29.83,SSE,155,5.0,-999.0,94,-99.99,,,-99.99,,2013-04-06 07:11:00,
2013-04-06 00:22:00,51.0,49.0,29.84,South,190,5.0,-999.0,94,-99.99,,,-99.99,,2013-04-06 07:22:00,
2013-04-06 00:32:00,51.0,49.0,29.83,South,191,4.0,-999.0,94,-99.99,,,-99.99,,2013-04-06 07:32:00,
2013-04-06 00:42:00,51.0,49.0,29.83,South,191,4.0,-999.0,94,-99.99,,,-99.99,,2013-04-06 07:42:00,
2013-04-06 00:52:00,51.0,50.0,29.84,South,172,5.0,-999.0,95,-99.99,,,-99.99,,2013-04-06 07:52:00,
2013-04-06 01:02:00,51.0,50.0,29.85,South,182,7.0,-999.0,95,-99.99,,,-99.99,,2013-04-06 08:02:00,
2013-04-06 01:12:00,51.0,50.0,29.85,South,182,7.0,-999.0,95,-99.99,,,-99.99,,2013-04-06 08:12:00,
2013-04-06 01:22:00,51.0,50.0,29.85,SSE,164,5.0,-999.0,95,-99.99,,,-99.99,,2013-04-06 08:22:00,
2013-04-06 01:32:00,51.0,50.0,29.85,SSE,164,5.0,-999.0,95,-99.99,,,-99.99,,2013-04-06 08:32:00,
2013-04-06 01:42:00,51.0,50.0,29.85,SSE,164,5.0,-999.0,95,-99.99,,,-99.99,,2013-04-06 08:42:00,
2013-04-06 01:52:00,51.0,49.0,29.85,SSE,158,4.0,-999.0,94,-99.99,,,-99.99,,2013-04-06 08:52:00,
2013-04-06 02:01:00,51.0,49.0,29.85,SSW,194,7.0,-999.0,94,-99.99,,,-99.99,,2013-04-06 09:01:00,
2013-04-06 02:12:00,51.0,49.0,29.85,SSW,194,7.0,-999.0,94,-99.99,,,-99.99,,2013-04-06 09:12:00,
2013-04-06 02:21:00,51.0,49.0,29.87,SSW,193,5.0,-999.0,94,-99.99,,,-99.99,,2013-04-06 09:21:00,
2013-04-06 02:31:00,51.0,49.0,29.87,South,188,3.0,-999.0,94,-99.99,,,-99.99,,2013-04-06 09:31:00,
2013-04-06 02:32:00,51.0,49.0,29.86,SSW,192,4.0,-999.0,94,-99.99,,,-99.99,,2013-04-06 09:32:00,
2013-04-06 02:42:00,51.0,49.0,29.86,SSW,192,4.0,-999.0,94,-99.99,,,-99.99,,2013-04-06 09:42:00,
2013-04-06 02:53:00,51.0,49.0,29.87,South,188,3.0,-999.0,94,-99.99,,,-99.99,,2013-04-06 09:53:00,
2013-04-06 03:02:00,51.0,49.0,29.87,South,188,3.0,-999.0,94,-99.99,,,-99.99,,2013-04-06 10:02:00,
2013-04-06 03:12:00,51.0,49.0,29.87,South,188,3.0,-999.0,94,-99.99,,,-99.99,,2013-04-06 10:12:00,
2013-04-06 03:22:00,51.0,49.0,29.87,South,188,3.0,-999.0,94,-99.99,,,-99.99,,2013-04-06 10:22:00,
2013-04-06 11:52:00,54.0,47.0,30.00,SW,223,5.0,-999.0,78,-99.99,,,-99.99,,2013-04-06 18:52:00,
2013-04-06 12:02:00,54.0,49.0,29.99,South,182,3.0,-999.0,82,-99.99,,,-99.99,,2013-04-06 19:02:00,
2013-04-06 12:12:00,54.0,49.0,29.99,South,182,3.0,-999.0,82,-99.99,,,-99.99,,2013-04-06 19:12:00,
2013-04-06 12:22:00,55.0,47.0,29.99,SSW,210,4.0,-999.0,75,-99.99,,,-99.99,,2013-04-06 19:22:00,
2013-04-06 12:32:00,55.0,47.0,29.99,WSW,240,3.0,-999.0,75,-99.99,,,-99.99,,2013-04-06 19:32:00,
2013-04-06 12:42:00,55.0,47.0,29.99,WSW,240,3.0,-999.0,75,-99.99,,,-99.99,,2013-04-06 19:42:00,
2013-04-06 12:53:00,56.0,47.0,29.99,SW,235,4.0,-999.0,71,-99.99,,,-99.99,,2013-04-06 19:53:00,
2013-04-06 13:02:00,58.0,47.0,29.99,South,174,5.0,-999.0,68,-99.99,,,-99.99,,2013-04-06 20:02:00,
2013-04-06 13:12:00,58.0,47.0,29.99,South,174,5.0,-999.0,68,-99.99,,,-99.99,,2013-04-06 20:12:00,
2013-04-06 13:22:00,58.0,45.0,29.99,SW,219,6.0,-999.0,63,-99.99,,,-99.99,,2013-04-06 20:22:00,
2013-04-06 13:31:00,57.0,45.0,29.98,SSW,202,6.0,-999.0,65,-99.99,,,-99.99,,2013-04-06 20:31:00,
2013-04-06 13:41:00,57.0,45.0,29.98,SSW,202,6.0,-999.0,65,-99.99,,,-99.99,,2013-04-06 20:41:00,
2013-04-06 13:52:00,57.0,46.0,29.98,WSW,249,2.0,-999.0,66,-99.99,,,-99.99,,2013-04-06 20:52:00,
2013-04-06 14:01:00,57.0,45.0,29.98,South,182,2.0,-999.0,65,-99.99,,,-99.99,,2013-04-06 21:01:00,
2013-04-06 14:12:00,57.0,44.0,29.98,SW,223,4.0,-999.0,62,-99.99,,,-99.99,,2013-04-06 21:12:00,
2013-04-06 14:22:00,57.0,44.0,29.98,SW,223,4.0,-999.0,62,-99.99,,,-99.99,,2013-04-06 21:22:00,
2013-04-06 14:33:00,57.0,45.0,29.98,WSW,240,3.0,-999.0,64,-99.99,,,-99.99,,2013-04-06 21:33:00,
2013-04-06 14:43:00,57.0,45.0,29.98,WSW,240,3.0,-999.0,64,-99.99,,,-99.99,,2013-04-06 21:43:00,
2013-04-06 14:52:00,57.0,44.0,29.98,SSW,196,3.0,-999.0,62,-99.99,,,-99.99,,2013-04-06 21:52:00,
2013-04-06 15:02:00,57.0,45.0,29.97,SE,146,3.0,-999.0,64,-99.99,,,-99.99,,2013-04-06 22:02:00,
2013-04-06 15:12:00,57.0,45.0,29.97,SE,146,3.0,-999.0,64,-99.99,,,-99.99,,2013-04-06 22:12:00,
2013-04-06 15:22:00,57.0,44.0,29.96,SW,224,3.0,-999.0,62,-99.99,,,-99.99,,2013-04-06 22:22:00,
2013-04-06 15:33:00,57.0,45.0,29.96,SSE,157,4.0,-999.0,65,-99.99,,,-99.99,,2013-04-06 22:33:00,
2013-04-06 15:42:00,57.0,45.0,29.96,SSE,157,4.0,-999.0,65,-99.99,,,-99.99,,2013-04-06 22:42:00,
2013-04-06 15:53:00,54.0,48.0,29.97,SW,223,3.0,-999.0,79,-99.99,,,-99.99,,2013-04-06 22:53:00,
2013-04-06 16:02:00,53.0,47.0,29.96,South,178,2.0,-999.0,80,-99.99,,,-99.99,,2013-04-06 23:02:00,
2013-04-06 16:22:00,52.0,46.0,29.96,South,186,3.0,-999.0,80,-99.99,,,-99.99,,2013-04-06 23:22:00,
2013-04-06 16:32:00,52.0,47.0,29.96,SW,219,3.0,-999.0,83,-99.99,,,-99.99,,2013-04-06 23:32:00,
2013-04-06 16:42:00,52.0,47.0,29.96,SW,219,3.0,-999.0,83,-99.99,,,-99.99,,2013-04-06 23:42:00,
2013-04-06 16:53:00,51.0,46.0,29.96,SSE,161,3.0,-999.0,83,-99.99,,,-99.99,,2013-04-06 23:53:00,
2013-04-06 17:01:00,51.0,47.0,29.95,South,178,1.0,-999.0,85,-99.99,,,-99.99,,2013-04-07 00:01:00,
2013-04-06 17:11:00,51.0,47.0,29.95,South,178,1.0,-999.0,85,-99.99,,,-99.99,,2013-04-07 00:11:00,
2013-04-06 17:22:00,51.0,47.0,29.94,SSE,163,0.0,-999.0,86,-99.99,,,-99.99,,2013-04-07 00:22:00,
2013-04-06 17:32:00,51.0,48.0,29.95,South,178,0.0,-999.0,88,-99.99,,,-99.99,,2013-04-07 00:32:00,
2013-04-06 17:42:00,51.0,48.0,29.95,South,178,0.0,-999.0,88,-99.99,,,-99.99,,2013-04-07 00:42:00,
2013-04-06 17:52:00,51.0,48.0,29.93,South,177,1.0,-999.0,88,-99.99,,,-99.99,,2013-04-07 00:52:00,
2013-04-06 18:01:00,51.0,48.0,29.93,South,184,1.0,-999.0,88,-99.99,,,-99.99,,2013-04-07 01:01:00,
2013-04-06 18:12:00,51.0,48.0,29.93,South,184,1.0,-999.0,88,-99.99,,,-99.99,,2013-04-07 01:12:00,
2013-04-06 18:22:00,51.0,48.0,29.93,SW,215,0.0,-999.0,89,-99.99,,,-99.99,,2013-04-07 01:22:00,
2013-04-06 18:31:00,51.0,48.0,29.93,South,169,0.0,-999.0,89,-99.99,,,-99.99,,2013-04-07 01:31:00,
2013-04-06 18:42:00,51.0,48.0,29.93,South,169,0.0,-999.0,89,-99.99,,,-99.99,,2013-04-07 01:42:00,
2013-04-06 18:53:00,50.0,47.0,29.93,South,169,0.0,-999.0,91,-99.99,,,-99.99,,2013-04-07 01:53:00,
2013-04-06 19:02:00,50.0,47.0,29.92,South,169,0.0,-999.0,91,-99.99,,,-99.99,,2013-04-07 02:02:00,
2013-04-06 19:12:00,50.0,47.0,29.92,South,169,0.0,-999.0,91,-99.99,,,-99.99,,2013-04-07 02:12:00,
2013-04-06 19:22:00,50.0,47.0,29.91,South,169,0.0,-999.0,91,-99.99,,,-99.99,,2013-04-07 02:22:00,
2013-04-06 19:32:00,50.0,47.0,29.91,South,169,0.0,-999.0,90,-99.99,,,-99.99,,2013-04-07 02:32:00,
2013-04-06 19:42:00,50.0,47.0,29.91,South,169,0.0,-999.0,90,-99.99,,,-99.99,,2013-04-07 02:42:00,
2013-04-06 19:52:00,49.0,46.0,29.89,South,169,0.0,-999.0,90,-99.99,,,-99.99,,2013-04-07 02:52:00,
2013-04-06 20:01:00,49.0,46.0,29.88,South,169,0.0,-999.0,89,-99.99,,,-99.99,,2013-04-07 03:01:00,
2013-04-06 20:12:00,49.0,46.0,29.88,South,169,0.0,-999.0,89,-99.99,,,-99.99,,2013-04-07 03:12:00,
2013-04-06 20:22:00,48.0,45.0,29.87,South,169,0.0,-999.0,91,-99.99,,,-99.99,,2013-04-07 03:22:00,
2013-04-06 20:33:00,48.0,45.0,29.86,South,169,0.0,-999.0,91,-99.99,,,-99.99,,2013-04-07 03:33:00,
2013-04-06 20:42:00,48.0,45.0,29.86,South,169,0.0,-999.0,91,-99.99,,,-99.99,,2013-04-07 03:42:00,
2013-04-06 20:53:00,48.0,46.0,29.86,South,169,0.0,-999.0,92,-99.99,,,-99.99,,2013-04-07 03:53:00,
2013-04-06 21:02:00,48.0,46.0,29.85,South,169,0.0,-999.0,93,-99.99,,,-99.99,,2013-04-07 04:02:00,
2013-04-06 21:12:00,48.0,46.0,29.85,South,169,0.0,-999.0,93,-99.99,,,-99.99,,2013-04-07 04:12:00,
2013-04-06 21:23:00,48.0,46.0,29.83,East,90,0.0,-999.0,94,-99.99,,,-99.99,,2013-04-07 04:23:00,
2013-04-06 21:32:00,48.0,46.0,29.83,East,90,0.0,-999.0,94,-99.99,,,-99.99,,2013-04-07 04:32:00,
2013-04-06 21:43:00,48.0,46.0,29.83,East,90,0.0,-999.0,94,-99.99,,,-99.99,,2013-04-07 04:43:00,
2013-04-06 21:52:00,48.0,47.0,29.81,SW,215,0.0,-999.0,95,-99.99,,,-99.99,,2013-04-07 04:52:00,
2013-04-06 22:01:00,48.0,47.0,29.80,SSW,202,0.0,-999.0,95,-99.99,,,-99.99,,2013-04-07 05:01:00,
2013-04-06 22:12:00,48.0,47.0,29.80,SSW,202,0.0,-999.0,95,-99.99,,,-99.99,,2013-04-07 05:12:00,
2013-04-06 22:22:00,48.0,47.0,29.78,SE,130,1.0,-999.0,95,-99.99,,,-99.99,,2013-04-07 05:22:00,
2013-04-06 22:32:00,49.0,48.0,29.77,SE,131,3.0,-999.0,95,-99.99,,,-99.99,,2013-04-07 05:32:00,
2013-04-06 22:42:00,49.0,48.0,29.77,SE,131,3.0,-999.0,95,-99.99,,,-99.99,,2013-04-07 05:42:00,
2013-04-06 22:52:00,49.0,48.0,29.75,ESE,113,2.0,-999.0,95,-99.99,,,-99.99,,2013-04-07 05:52:00,
2013-04-06 23:01:00,49.0,48.0,29.75,South,174,3.0,-999.0,95,-99.99,,,-99.99,,2013-04-07 06:01:00,
2013-04-06 23:12:00,49.0,48.0,29.75,South,174,3.0,-999.0,95,-99.99,,,-99.99,,2013-04-07 06:12:00,
2013-04-06 23:21:00,49.0,48.0,29.72,ESE,107,2.0,-999.0,96,-99.99,,,-99.99,,2013-04-07 06:21:00,
2013-04-06 23:32:00,49.0,48.0,29.72,ESE,117,4.0,-999.0,96,-99.99,,,-99.99,,2013-04-07 06:32:00,
2013-04-06 23:42:00,49.0,48.0,29.72,ESE,117,4.0,-999.0,96,-99.99,,,-99.99,,2013-04-07 06:42:00,
2013-04-06 23:52:00,49.0,48.0,29.70,SSW,192,6.0,-999.0,96,-99.99,,,-99.99,,2013-04-07 06:52:00,